Wetbulb
55.04 55.69 56.29 56.52 56.23 55.65 55.19 55.03 54.85 54.71 54.81 55.02 55.79 56.44 57.29 57.66 56.75 43.96 39.13 44.84 51.98 57.48 56.00 49.71 45.67 43.84 44.00 42.41 43.20 40.37 35.56 31.33 32.13 32.89 34.99 34.96 35.67 35.98 37.21 36.60 35.37 36.62 35.85 37.54 39.89
55.38 55.87 56.56 56.97 57.11 56.77 56.53 56.12 55.88 55.49 54.96 54.94 55.42 56.24 56.97 57.30 44.41 41.20 49.16 56.11 56.66 56.78 46.31 42.06 41.54 42.83 40.67 39.57 39.88 38.66 34.52 35.05 35.39 34.31 33.22 34.82 35.21 36.98 35.16 33.53 33.69 34.50 37.09 39.00 39.15
55.97 56.18 56.58 56.98 57.17 57.31 57.37 57.08 56.91 56.50 55.96 55.27 55.17 55.91 56.83 53.74 40.24 40.57 54.43 56.60 55.96 53.27 47.42 44.71 42.00 42.20 38.90 37.73 36.63 34.54 34.76 34.65 34.56 35.34 35.79 35.75 33.28 34.68 34.35 32.26 34.76 34.96 36.28 37.32 36.75
56.92 57.17 57.28 57.41 57.51 57.64 57.74 57.65 57.39 57.19 56.81 55.71 55.23 55.86 57.38 46.79 31.69 43.20 55.24 55.39 56.66 49.25 45.10 41.14 42.08 38.72 36.15 35.49 35.51 35.18 34.70 34.83 36.37 36.94 36.42 35.50 35.28 32.72 33.97 34.12 36.03 36.48 37.49 37.00 36.61
58.24 58.18 58.11 58.01 57.97 58.10 58.30 58.34 58.00 57.64 57.07 55.90 55.41 56.07 49.16 38.36 38.69 46.66 53.20 50.68 46.44 44.88 41.69 40.60 39.31 37.89 35.40 34.84 35.38 34.04 32.91 35.23 35.04 35.99 34.99 36.60 33.41 33.93 33.90 34.32 35.70 37.27 38.12 36.33 36.41
56.44 56.72 57.58 58.39 58.47 58.47 58.63 58.82 58.54 57.69 56.66 55.70 55.35 56.28 42.39 33.71 45.69 46.82 46.55 45.47 44.70 42.70 40.35 40.85 40.06 39.07 36.49 34.05 33.54 32.84 34.10 33.17 34.77 34.29 34.75 33.69 32.77 33.39 33.17 34.51 35.30 36.87 35.54 35.40 36.78
54.30 54.88 56.12 57.26 58.55 58.91 58.75 58.81 58.38 57.00 56.03 54.82 54.99 49.89 40.24 36.88 44.54 45.46 46.53 43.27 43.62 43.06 40.67 41.42 41.35 40.23 36.89 34.09 35.27 33.67 31.44 31.32 31.50 32.73 32.48 33.85 31.74 32.24 32.98 34.57 34.57 34.74 34.21 35.36 36.72
53.22 53.47 54.91 56.92 58.09 58.57 58.63 58.22 57.47 55.55 54.58 54.43 54.75 42.34 35.28 44.98 44.33 45.34 45.96 43.46 44.23 44.26 43.72 42.74 42.88 39.89 37.52 35.87 34.38 31.49 29.09 26.52 28.98 32.95 32.39 31.56 28.21 30.41 32.78 33.33 32.84 32.68 31.80 34.56 36.32
53.04 52.90 53.71 56.01 57.70 58.02 57.90 57.37 54.96 54.99 54.50 54.74 44.07 38.98 34.42 48.35 42.03 43.56 44.04 42.05 42.74 42.91 43.15 44.49 41.30 36.50 35.28 32.00 28.53 28.50 25.01 24.45 27.97 33.14 31.45 29.35 27.51 29.76 32.51 32.27 32.08 31.13 31.26 33.47 34.97
52.45 52.57 53.12 55.23 57.16 57.72 57.20 53.94 54.35 53.49 50.38 49.12 45.14 37.38 39.33 37.91 41.60 43.20 42.73 43.75 40.87 40.62 40.60 39.72 36.17 32.80 30.42 28.56 25.75 25.61 24.11 25.73 26.01 31.31 29.78 28.00 30.07 30.40 31.20 32.39 32.50 31.31 30.94 32.14 34.23
51.70 52.08 52.51 54.50 57.17 57.29 50.47 45.57 44.41 43.77 44.10 41.04 40.35 38.95 39.89 41.65 43.27 42.39 43.07 40.80 39.85 37.54 31.77 34.12 31.87 29.12 33.12 29.58 28.71 28.71 26.75 25.06 26.56 30.10 29.24 28.11 29.36 32.67 32.07 31.58 31.72 31.79 32.20 32.45 34.13
50.57 51.11 51.79 53.24 55.43 55.53 47.02 41.31 42.49 43.05 37.74 42.86 42.35 42.02 42.99 42.88 36.93 39.71 42.94 36.06 34.42 30.56 31.59 30.40 27.37 33.51 33.57 33.24 31.53 27.41 27.14 25.27 27.70 29.89 29.43 26.77 29.35 31.89 31.83 33.44 34.42 34.65 33.66 32.71 34.47
49.44 50.26 50.93 52.44 54.45 47.62 44.66 43.69 46.56 44.91 39.35 40.83 42.01 41.02 40.97 41.98 36.93 36.66 39.46 36.31 32.66 30.49 29.04 27.54 30.08 34.42 33.14 31.42 31.72 28.12 27.72 26.96 27.23 28.01 27.66 26.60 26.41 28.54 31.00 32.06 34.54 36.54 36.81 34.56 34.58
47.96 49.08 50.06 52.28 50.54 43.37 42.58 47.53 46.98 45.70 32.87 36.45 37.76 40.41 41.70 40.72 35.71 41.04 40.60 36.43 33.44 30.21 30.63 29.13 33.24 32.67 30.71 30.66 32.24 27.47 31.73 30.59 30.02 27.28 23.40 26.05 19.92 28.07 31.34 31.74 32.25 35.06 33.31 32.54 33.82
47.06 48.22 49.21 52.69 42.80 41.58 43.33 45.83 45.62 44.94 21.32 36.32 36.69 44.03 41.29 36.99 37.00 36.89 40.44 36.27 31.43 30.83 29.96 27.67 29.06 29.65 29.76 30.31 32.46 29.88 33.13 30.69 28.81 25.94 22.81 22.83 20.62 27.95 30.30 32.26 35.61 32.44 32.35 31.26 34.31
46.43 47.46 48.23 49.63 43.11 42.44 43.94 44.46 45.18 32.76 22.71 30.55 36.51 35.13 35.12 36.59 36.68 37.47 37.08 39.09 36.37 32.08 31.45 30.03 33.95 32.50 30.40 32.26 32.51 34.15 32.32 30.17 26.20 24.68 19.71 24.31 23.56 25.93 30.24 31.71 32.89 31.77 29.29 31.54 34.45
45.86 46.56 46.08 48.35 44.39 45.22 44.68 42.97 32.34 26.96 32.35 29.77 31.72 33.55 33.09 32.39 33.51 33.59 32.50 30.87 27.78 24.50 23.78 28.33 29.31 31.75 33.03 29.90 32.98 31.06 29.02 23.84 20.69 17.68 22.43 23.03 19.95 28.14 32.74 32.73 31.34 32.22 30.71 32.39 35.50
45.69 45.93 45.19 47.51 46.79 46.14 44.73 37.38 22.90 24.09 26.53 33.86 33.91 33.30 31.15 32.84 31.62 32.44 28.91 26.19 29.79 28.14 22.20 22.79 21.68 28.87 32.83 29.77 28.02 27.60 28.79 24.72 17.31 19.47 21.08 24.43 23.81 30.76 30.44 31.82 32.21 32.44 31.02 32.98 33.81
45.31 40.61 42.11 45.58 47.15 46.72 41.33 31.94 27.04 28.55 34.07 32.09 32.86 29.44 29.45 31.27 31.28 31.08 28.87 27.89 29.97 30.91 27.94 22.91 24.21 30.57 32.52 32.02 31.32 28.00 25.42 29.08 24.36 12.54 18.93 24.17 28.10 32.99 30.75 30.95 31.43 30.83 31.44 31.49 32.83
38.69 38.63 41.71 44.92 46.94 44.89 35.00 32.78 29.85 34.81 35.31 33.70 31.34 30.72 26.12 28.20 28.31 28.43 28.34 31.77 31.56 32.74 33.20 29.34 25.26 28.94 30.84 31.00 31.27 28.58 30.30 25.00 23.54 15.93 13.77 21.63 22.21 26.06 29.25 29.84 30.80 29.15 29.84 31.15 32.15
38.09 33.16 39.15 45.30 46.15 37.79 32.07 26.42 32.01 37.52 36.16 33.30 31.48 29.26 30.12 28.67 28.68 25.55 28.46 31.21 33.23 31.66 33.18 31.98 29.66 27.50 29.84 27.67 26.73 26.74 25.05 26.50 26.55 24.87 20.07 16.70 23.81 27.86 26.30 29.43 30.27 30.63 31.00 31.75 32.59
36.37 24.67 38.99 44.86 34.54 32.34 32.66 31.60 36.42 34.63 35.36 34.91 34.85 33.35 30.40 29.83 28.19 28.43 28.62 30.19 34.99 33.82 30.83 33.92 29.53 23.75 24.90 27.86 29.56 27.23 26.53 27.52 23.62 22.31 21.80 22.54 22.44 30.31 29.67 30.98 30.55 30.26 31.66 31.94 33.59
32.51 32.29 39.52 42.54 30.05 31.67 31.82 32.23 33.54 33.38 33.46 33.91 34.20 34.74 32.83 29.97 27.27 29.47 30.53 34.75 36.30 33.92 33.07 35.02 28.88 18.27 23.17 25.17 26.90 27.32 28.52 28.41 27.48 26.28 23.10 20.67 23.83 31.60 30.55 30.72 31.01 31.33 31.11 32.29 33.04
32.59 20.84 26.72 36.55 35.13 26.03 30.17 30.49 28.82 35.21 34.06 35.66 35.08 35.89 32.36 30.47 33.84 29.61 30.64 32.95 36.50 36.61 40.42 38.33 29.51 26.77 24.68 25.84 26.40 25.98 27.48 27.86 27.28 21.97 23.17 24.37 26.54 31.83 35.22 35.70 34.98 33.13 31.74 31.53 33.32
30.90 27.01 30.70 26.76 30.12 31.28 31.85 28.56 30.40 30.20 33.65 34.49 32.96 33.04 32.98 28.69 30.93 31.26 32.99 34.21 35.28 37.37 35.17 35.57 30.72 30.84 30.37 29.38 27.16 27.90 27.60 27.42 25.91 28.36 25.15 26.10 27.42 32.75 34.45 33.52 35.30 34.59 32.44 31.35 32.08
20.01 27.14 26.01 27.93 31.09 31.41 31.07 28.09 26.98 31.09 31.42 29.76 26.99 31.33 33.36 31.03 30.95 29.39 33.10 32.87 31.16 35.00 34.51 33.92 29.25 27.98 26.54 27.18 28.31 27.46 28.34 26.84 28.22 28.55 27.08 28.48 27.83 36.41 37.56 35.31 32.75 34.32 32.81 31.57 32.08
33.41 34.68 23.49 21.07 23.33 24.97 27.47 28.74 29.14 30.68 30.40 32.54 32.23 32.06 31.77 33.33 35.94 36.02 36.21 35.49 33.89 33.26 32.49 31.97 29.07 25.77 15.96 20.82 24.45 19.78 26.77 30.00 29.75 28.25 29.84 26.67 33.06 34.11 34.59 34.44 34.79 35.16 35.02 33.21 33.39
MSLP
1015.57 1015.55 1015.53 1015.47 1015.39 1015.21 1015.03 1014.88 1014.76 1014.58 1014.56 1014.31 1014.14 1013.85 1013.62 1013.35 1013.13 1013.18 1013.62 1013.94 1013.83 1013.52 1013.53 1013.61 1013.30 1013.15 1013.24 1014.03 1014.59 1015.12 1016.90 1018.62 1018.80 1018.91 1018.45 1018.77 1019.19 1019.65 1020.01 1020.55 1021.13 1021.55 1021.88 1022.25 1022.58
1015.52 1015.51 1015.46 1015.40 1015.40 1015.21 1015.05 1014.88 1014.68 1014.51 1014.46 1014.30 1014.12 1013.88 1013.64 1013.41 1013.30 1013.60 1013.85 1013.63 1013.47 1013.37 1013.42 1013.54 1013.44 1013.28 1014.04 1014.61 1015.30 1015.90 1017.33 1017.92 1018.02 1018.24 1018.47 1018.85 1019.24 1019.80 1020.37 1020.85 1021.39 1021.83 1022.25 1022.53 1022.83
1015.43 1015.44 1015.35 1015.33 1015.29 1015.14 1015.07 1014.91 1014.64 1014.47 1014.36 1014.22 1014.08 1013.84 1013.58 1013.43 1013.51 1013.83 1013.71 1013.49 1013.37 1013.38 1013.50 1013.55 1013.48 1013.46 1014.45 1015.14 1016.10 1016.66 1017.48 1017.78 1018.01 1018.17 1018.49 1019.06 1019.61 1019.95 1020.44 1021.12 1021.10 1021.55 1022.39 1022.85 1023.25
1015.29 1015.38 1015.31 1015.24 1015.19 1015.11 1014.91 1014.80 1014.61 1014.38 1014.23 1014.10 1013.98 1013.74 1013.49 1013.57 1014.07 1013.73 1013.60 1013.39 1013.38 1013.38 1013.38 1013.38 1013.43 1014.13 1015.07 1015.93 1016.49 1017.01 1017.90 1018.09 1018.27 1018.34 1018.64 1019.24 1019.63 1020.07 1020.51 1020.31 1020.70 1021.26 1022.02 1022.76 1023.36
1015.25 1015.30 1015.26 1015.21 1015.05 1014.98 1014.75 1014.58 1014.41 1014.29 1014.09 1013.89 1013.78 1013.64 1013.52 1013.86 1013.95 1013.68 1013.54 1013.34 1013.26 1013.30 1013.33 1013.47 1013.75 1014.53 1015.67 1016.36 1016.82 1017.46 1018.16 1018.37 1018.59 1018.71 1018.91 1019.17 1019.62 1020.14 1020.36 1020.53 1020.96 1021.57 1022.25 1022.96 1023.43
1015.33 1015.31 1015.14 1015.02 1014.86 1014.75 1014.63 1014.42 1014.23 1014.11 1013.89 1013.70 1013.70 1013.53 1013.67 1014.22 1014.12 1013.89 1013.69 1013.40 1013.36 1013.30 1013.44 1013.62 1013.98 1014.57 1016.09 1017.06 1017.44 1018.10 1018.33 1018.58 1018.70 1018.89 1019.15 1019.51 1019.98 1020.34 1020.18 1020.80 1021.60 1022.09 1022.67 1023.13 1023.37
1015.50 1015.44 1015.19 1014.95 1014.66 1014.55 1014.41 1014.23 1013.97 1013.76 1013.59 1013.50 1013.58 1013.59 1013.58 1014.19 1014.09 1014.00 1013.77 1013.68 1013.52 1013.43 1013.65 1013.90 1014.10 1014.82 1016.39 1017.48 1018.13 1018.41 1018.76 1018.82 1018.89 1019.09 1019.39 1019.54 1020.23 1019.93 1020.30 1021.17 1021.91 1022.49 1022.84 1023.22 1023.43
1015.62 1015.50 1015.19 1014.80 1014.52 1014.42 1014.17 1013.86 1013.62 1013.37 1013.42 1013.36 1013.45 1013.58 1014.03 1014.04 1013.88 1013.96 1013.95 1013.82 1013.63 1013.50 1013.74 1014.00 1014.25 1015.47 1016.73 1017.92 1018.36 1018.84 1019.08 1019.28 1019.07 1019.24 1019.64 1019.99 1019.71 1019.71 1020.57 1021.39 1022.29 1022.85 1023.28 1023.42 1023.53
1015.59 1015.56 1015.33 1014.85 1014.44 1014.27 1013.86 1013.61 1013.47 1013.34 1013.36 1013.39 1013.44 1013.56 1014.20 1013.91 1014.09 1014.25 1014.24 1014.15 1013.94 1013.85 1014.00 1014.13 1014.64 1016.64 1017.53 1018.17 1019.08 1019.47 1019.38 1019.40 1019.23 1019.53 1019.89 1020.41 1020.01 1020.12 1020.82 1021.73 1022.53 1023.00 1023.36 1023.49 1023.62
1015.68 1015.58 1015.39 1014.88 1014.40 1014.20 1013.67 1013.43 1013.37 1013.41 1013.45 1013.55 1013.48 1013.96 1014.34 1014.57 1014.56 1014.45 1014.27 1014.25 1014.22 1014.17 1014.42 1014.79 1016.01 1017.11 1018.03 1018.27 1018.84 1018.92 1019.10 1019.07 1019.22 1019.58 1020.20 1020.67 1019.96 1020.17 1020.77 1021.58 1021.90 1022.37 1022.84 1023.34 1023.55
1015.88 1015.66 1015.35 1014.98 1014.47 1014.07 1013.78 1013.48 1014.00 1014.10 1013.85 1014.09 1013.97 1014.19 1014.49 1014.73 1014.62 1014.81 1014.73 1014.50 1014.50 1014.80 1015.43 1015.89 1016.74 1017.09 1017.35 1017.63 1017.71 1018.02 1018.30 1018.54 1018.91 1019.47 1020.19 1020.47 1020.34 1019.54 1020.20 1020.85 1021.16 1021.52 1021.84 1022.34 1022.99
1016.09 1015.80 1015.34 1014.99 1014.51 1014.07 1014.06 1014.35 1014.66 1014.87 1014.63 1014.50 1014.41 1014.44 1014.49 1014.60 1014.91 1015.06 1014.92 1015.01 1015.16 1015.74 1016.09 1016.83 1017.00 1016.93 1017.07 1017.43 1017.66 1017.96 1018.19 1018.51 1019.05 1019.76 1020.38 1020.47 1019.76 1019.16 1019.18 1018.90 1018.77 1019.18 1020.13 1020.78 1022.08
1016.30 1015.79 1015.26 1014.93 1014.36 1014.14 1014.51 1014.90 1014.97 1014.97 1014.93 1014.86 1014.72 1014.77 1014.75 1014.59 1015.20 1015.39 1015.33 1015.25 1015.79 1016.37 1016.57 1016.96 1017.28 1017.12 1017.23 1017.46 1017.69 1017.92 1018.28 1018.46 1019.26 1019.90 1020.59 1020.72 1019.61 1018.38 1017.56 1017.41 1017.34 1017.47 1018.08 1019.33 1020.28
1016.31 1015.91 1015.32 1014.94 1014.79 1014.82 1015.07 1015.11 1014.97 1015.17 1015.37 1015.16 1014.98 1014.90 1014.96 1014.69 1015.43 1015.57 1015.60 1015.68 1016.30 1016.90 1017.17 1017.69 1017.60 1017.32 1017.45 1017.64 1017.74 1018.24 1018.10 1018.62 1019.49 1020.45 1021.31 1021.13 1020.20 1018.54 1017.05 1016.58 1016.17 1016.10 1017.46 1018.86 1020.39
1016.55 1015.98 1015.46 1014.90 1015.17 1015.17 1015.41 1015.08 1014.90 1015.40 1015.52 1015.30 1015.05 1014.99 1015.09 1015.47 1015.54 1015.67 1015.76 1015.68 1016.68 1017.35 1017.76 1018.39 1018.36 1018.09 1018.07 1018.07 1018.00 1018.36 1018.58 1019.28 1020.04 1021.06 1021.62 1021.70 1021.58 1017.80 1016.95 1016.14 1015.26 1016.20 1017.45 1018.76 1019.95
1016.62 1015.92 1015.48 1015.04 1015.44 1015.52 1015.06 1014.99 1015.16 1016.28 1015.49 1015.31 1015.25 1015.05 1015.54 1015.82 1015.89 1015.83 1015.89 1016.22 1017.11 1017.77 1018.33 1018.94 1019.00 1018.99 1018.86 1018.85 1018.67 1018.76 1019.26 1020.21 1021.25 1021.97 1022.30 1021.60 1021.16 1018.94 1016.75 1016.07 1016.01 1016.53 1017.38 1018.52 1019.73
1016.21 1015.75 1015.65 1015.13 1015.61 1015.49 1015.15 1015.36 1016.25 1016.22 1015.96 1015.79 1015.66 1015.48 1015.78 1016.30 1016.49 1016.41 1016.53 1016.79 1017.30 1018.37 1019.16 1019.62 1019.77 1019.65 1019.34 1019.48 1019.35 1019.32 1020.05 1021.18 1022.19 1022.83 1022.34 1021.70 1021.54 1018.11 1015.86 1016.09 1016.63 1017.01 1017.46 1018.36 1019.34
1016.15 1015.65 1015.50 1015.33 1015.30 1015.39 1015.37 1015.87 1016.22 1015.68 1015.83 1015.77 1015.74 1015.99 1016.27 1016.38 1016.82 1016.93 1017.27 1017.52 1017.44 1017.61 1019.22 1019.75 1020.52 1020.37 1020.28 1020.13 1019.92 1020.23 1020.49 1021.19 1022.15 1022.99 1022.53 1021.65 1020.11 1016.73 1015.86 1016.08 1016.50 1017.10 1017.80 1019.04 1019.96
1016.15 1015.78 1015.76 1015.67 1015.16 1015.39 1015.69 1015.88 1015.00 1014.98 1015.06 1015.62 1016.12 1016.26 1016.69 1016.87 1017.00 1017.14 1017.71 1017.68 1017.34 1017.48 1017.69 1019.03 1020.47 1021.04 1021.01 1020.83 1020.89 1020.98 1021.04 1021.09 1021.97 1023.44 1022.99 1021.00 1019.19 1016.49 1016.08 1016.23 1016.90 1017.62 1018.54 1019.58 1020.26
1016.27 1016.17 1015.92 1015.70 1015.36 1015.47 1015.96 1015.66 1015.18 1014.63 1014.61 1014.93 1015.40 1015.91 1016.47 1016.94 1017.34 1017.61 1017.83 1017.32 1017.20 1017.30 1017.18 1017.88 1019.99 1021.28 1021.36 1021.28 1021.26 1021.06 1021.15 1021.50 1022.07 1023.06 1022.68 1021.08 1019.72 1017.39 1016.54 1016.82 1017.23 1017.98 1018.95 1020.01 1020.86
1016.71 1016.52 1016.20 1015.82 1015.44 1015.79 1015.85 1015.75 1015.19 1014.69 1014.34 1014.50 1014.93 1015.79 1016.28 1016.85 1017.21 1017.51 1017.73 1017.54 1017.30 1017.44 1017.53 1017.99 1018.73 1021.74 1021.68 1021.53 1021.30 1021.65 1021.45 1021.72 1021.90 1022.14 1021.98 1021.46 1019.06 1017.14 1016.88 1016.88 1017.17 1017.74 1018.79 1019.67 1020.42
1017.08 1016.82 1015.99 1015.63 1016.12 1016.05 1016.06 1015.26 1015.14 1014.79 1014.65 1014.43 1014.57 1015.16 1015.86 1016.68 1017.28 1017.54 1017.60 1017.58 1017.41 1017.28 1017.69 1018.05 1019.21 1021.09 1021.54 1021.46 1021.36 1021.19 1021.16 1021.19 1021.67 1022.02 1021.80 1021.18 1018.85 1016.66 1016.42 1016.48 1017.01 1017.55 1018.43 1019.41 1020.05
1017.73 1017.32 1016.15 1015.74 1016.24 1016.16 1016.08 1015.74 1015.53 1015.28 1014.61 1014.98 1014.96 1015.13 1015.56 1016.10 1017.09 1017.57 1017.84 1018.05 1017.62 1017.39 1017.76 1017.86 1019.08 1020.86 1021.62 1021.93 1021.84 1021.58 1021.11 1021.01 1021.20 1021.40 1021.21 1020.75 1018.04 1016.43 1016.21 1016.24 1016.92 1017.51 1018.21 1018.83 1019.26
1017.97 1018.05 1017.08 1016.38 1016.32 1016.41 1016.39 1016.20 1015.78 1015.39 1015.15 1015.26 1015.43 1015.42 1015.88 1016.36 1016.87 1017.54 1018.25 1018.50 1018.23 1017.84 1017.78 1017.99 1019.12 1019.88 1020.47 1020.56 1020.92 1021.45 1021.11 1021.06 1020.94 1021.30 1020.35 1018.82 1017.33 1016.68 1015.70 1016.14 1016.52 1017.08 1017.62 1018.06 1018.56
1018.63 1018.54 1018.30 1017.79 1017.27 1016.71 1016.81 1016.60 1016.03 1016.02 1015.91 1015.75 1016.18 1016.01 1016.03 1016.80 1017.24 1017.56 1017.97 1018.72 1018.69 1018.49 1018.49 1018.90 1019.83 1020.49 1020.72 1020.71 1020.86 1020.82 1020.81 1020.71 1020.69 1020.06 1019.78 1018.50 1017.40 1016.18 1015.94 1016.33 1016.42 1016.48 1016.77 1017.55 1018.13
1019.22 1018.88 1019.05 1018.75 1017.94 1017.58 1017.20 1017.42 1016.99 1016.44 1016.11 1016.16 1016.45 1016.83 1016.70 1016.85 1016.93 1017.26 1017.54 1018.20 1018.68 1019.28 1019.13 1019.60 1020.54 1021.15 1021.39 1021.20 1021.29 1020.95 1020.30 1020.25 1020.18 1019.71 1018.99 1018.48 1017.07 1016.09 1015.94 1015.97 1016.20 1016.25 1016.37 1016.71 1016.93
1019.25 1019.17 1019.42 1019.93 1019.11 1018.54 1018.04 1017.79 1017.57 1017.06 1017.09 1016.78 1016.80 1016.98 1017.34 1017.58 1017.69 1017.34 1017.50 1018.08 1018.49 1019.14 1019.37 1019.81 1020.72 1021.88 1022.49 1022.20 1021.52 1020.53 1019.08 1018.92 1018.59 1018.30 1018.02 1017.85 1015.52 1015.78 1015.25 1015.74 1015.87 1015.74 1015.78 1015.86 1015.86
Wind_Speed
1 3 5 6 6 7 7 8 9 9 10 10 11 10 10 10 3 2 3 2 5 8 4 4 2 2 3 4 5 3 6 3 6 7 4 5 4 1 2 6 2 1 3 4 6
1 3 5 6 7 8 8 8 9 10 10 10 10 11 10 9 3 5 1 6 6 4 3 3 3 3 5 3 4 6 5 8 5 4 4 5 2 8 4 3 1 2 3 4 5
1 3 5 7 8 8 9 9 9 10 11 10 10 10 10 3 2 1 6 9 3 2 3 1 2 3 5 4 5 2 3 5 3 3 4 7 2 2 7 4 7 8 9 5 3
3 5 5 6 8 9 9 10 10 10 11 10 10 9 9 2 3 1 9 7 4 3 1 2 4 4 5 4 2 6 3 2 1 3 5 7 6 3 6 3 2 5 8 6 5
4 4 5 6 7 9 10 10 11 10 10 10 8 8 3 1 1 3 9 7 0 1 3 2 3 4 6 5 3 4 2 4 2 4 3 6 4 5 7 1 4 9 8 8 6
9 9 9 7 6 8 10 11 12 11 10 8 6 5 2 3 4 6 6 2 3 2 2 4 3 4 7 4 3 3 4 3 3 2 3 1 1 0 1 7 8 8 8 7 7
13 12 11 10 9 8 10 12 13 12 7 3 3 1 4 2 3 6 6 1 2 1 4 2 5 5 5 5 3 3 4 3 1 1 1 2 6 10 4 7 9 8 7 7 6
14 14 14 11 8 9 11 13 14 7 1 2 1 1 3 2 1 4 7 3 3 3 5 5 8 9 5 4 6 5 5 1 1 4 1 3 10 4 6 10 9 8 6 6 5
14 15 15 14 9 9 10 12 6 2 2 2 2 2 1 4 3 3 4 2 1 2 4 4 7 6 3 5 4 6 3 3 4 5 2 3 8 1 4 6 7 8 8 8 6
14 15 16 15 11 10 13 4 3 1 1 1 2 3 2 0 2 3 3 3 3 3 4 7 6 5 4 4 5 5 4 4 4 4 1 2 16 9 3 8 11 9 9 8 8
14 14 16 17 12 12 8 2 3 1 7 2 3 4 2 1 1 6 4 2 2 8 4 3 5 7 8 7 2 4 4 3 3 3 4 7 11 15 7 6 10 11 12 12 10
14 15 16 15 15 14 1 4 2 2 1 3 2 3 2 0 3 4 4 4 2 4 4 7 4 4 3 5 3 2 2 3 1 2 4 4 14 11 7 10 15 18 16 16 10
15 16 17 17 14 4 3 3 1 4 3 0 1 1 2 3 2 1 3 2 4 4 3 7 2 2 4 5 6 2 4 4 2 1 2 5 10 6 6 7 7 15 12 15 19
15 16 17 19 1 1 2 3 3 4 5 2 1 1 1 3 3 1 3 3 4 5 6 3 0 5 4 3 5 2 3 2 4 3 4 3 8 7 6 10 9 12 12 10 12
13 15 16 9 1 3 1 4 3 2 2 2 2 2 2 1 5 3 1 3 6 4 6 4 1 3 3 2 1 3 2 3 2 4 2 1 2 9 4 9 14 3 8 8 14
13 14 17 2 2 1 2 3 2 6 8 2 2 3 3 3 3 2 3 6 4 5 6 3 1 3 2 2 2 5 5 6 5 3 2 2 4 6 5 5 6 4 3 9 13
14 15 9 2 1 4 2 3 5 5 4 2 4 4 4 2 2 1 3 6 6 6 1 4 2 1 2 4 3 3 5 3 5 3 6 3 4 13 7 7 5 7 5 9 14
15 12 3 1 3 3 0 5 4 4 4 1 3 3 4 5 2 2 2 1 3 5 4 7 3 1 4 2 4 3 4 6 7 2 3 2 6 9 2 1 2 5 3 6 8
11 3 1 2 3 1 3 4 9 8 6 8 3 4 2 1 4 3 4 4 6 8 6 6 2 3 4 2 2 5 4 3 5 2 3 3 8 11 4 6 5 5 5 6 7
2 2 1 5 3 1 4 8 4 4 6 3 7 3 7 6 4 4 6 3 2 5 2 6 5 2 2 1 3 1 1 4 3 1 4 4 5 7 6 7 6 1 3 4 4
1 2 2 4 1 4 7 7 5 2 2 6 6 5 3 5 6 5 5 1 1 2 2 3 4 1 1 5 7 2 1 3 2 4 4 1 7 5 3 4 7 6 5 8 9
2 1 3 3 3 3 5 6 1 3 1 1 3 3 6 6 4 4 7 3 4 3 7 1 5 4 2 1 1 1 5 5 5 5 3 3 9 3 4 5 3 1 4 6 8
1 2 3 1 7 5 2 1 0 2 3 3 5 1 2 7 5 2 3 0 4 3 6 5 1 3 3 2 4 4 4 4 4 3 5 5 7 2 6 5 2 4 6 8 9
1 2 4 3 1 3 4 2 3 1 2 2 2 3 3 3 4 6 3 2 3 2 7 4 2 3 6 4 5 4 5 6 5 4 5 7 8 9 17 13 11 8 8 9 10
2 1 0 3 1 3 3 0 5 2 0 3 3 3 5 4 3 3 4 2 4 5 4 4 3 2 3 2 3 4 5 7 11 12 8 2 9 14 9 6 10 8 6 7 9
3 1 3 2 2 5 3 1 1 4 5 2 5 2 3 6 6 8 7 5 4 2 3 2 3 2 3 2 6 6 7 6 11 10 13 15 22 14 16 8 6 9 8 10 12
2 1 3 5 2 4 2 4 4 3 3 2 4 4 3 4 2 3 6 2 6 7 4 5 5 3 5 5 2 8 13 18 8 6 10 10 15 5 9 7 10 13 12 11 12
Wind_Direction
28 13 2 0 0 0 360 355 351 351 345 346 341 346 346 349 333 36 52 294 314 325 356 302 301 80 44 68 39 119 69 151 197 152 226 174 135 61 101 116 108 67 135 121 130
353 350 348 350 348 351 352 351 349 347 344 343 341 340 341 341 91 59 274 319 326 337 53 48 123 109 52 57 21 78 104 207 176 185 183 180 164 163 149 117 209 63 60 96 70
325 338 347 346 342 342 340 340 344 341 339 341 336 334 334 311 107 162 338 335 344 83 102 117 296 82 68 50 6 38 142 162 181 216 141 151 117 155 131 226 207 195 177 158 105
344 334 338 339 339 337 338 336 336 335 331 331 330 331 333 278 182 321 343 342 322 136 69 57 55 54 81 94 22 85 47 359 41 144 129 158 116 189 196 206 293 198 150 141 127
337 323 324 322 329 329 333 330 328 326 321 323 325 332 24 87 199 344 341 335 127 139 69 83 86 112 115 109 90 83 137 65 35 94 87 129 157 217 238 213 108 128 131 139 139
18 359 335 309 309 318 321 320 317 314 315 318 320 334 108 169 315 336 331 1 35 74 73 45 131 120 101 65 65 101 88 82 30 104 109 134 261 215 218 133 125 140 151 157 160
24 8 352 329 308 306 318 318 315 312 303 307 321 60 78 163 341 322 358 35 343 30 111 60 120 71 128 92 156 98 73 23 170 160 88 145 279 235 165 155 159 170 167 167 169
21 9 357 346 326 316 321 322 322 316 262 142 118 88 100 299 285 26 336 30 14 31 95 105 92 97 71 121 33 64 54 74 288 139 351 105 268 14 155 155 190 188 188 186 189
20 8 356 347 341 326 319 321 323 60 127 149 101 107 122 321 46 317 22 69 18 49 67 89 69 94 87 89 42 10 203 204 316 200 117 155 268 90 153 181 208 207 207 206 205
15 5 356 347 334 329 323 317 310 57 28 240 91 59 15 136 331 331 348 14 96 108 55 49 57 83 48 92 208 203 212 227 234 197 145 209 265 262 204 195 219 210 212 213 208
11 5 355 346 336 341 343 47 25 322 42 345 144 118 131 286 3 18 12 37 56 52 125 9 103 189 194 179 120 140 183 203 201 161 158 236 267 273 225 215 229 221 210 208 207
4 359 353 343 338 334 359 84 156 147 46 17 77 76 107 145 89 5 355 103 98 135 117 38 218 174 113 151 136 140 162 256 47 81 174 356 279 261 221 233 214 214 210 202 182
1 356 352 338 329 29 48 102 283 189 109 51 25 193 173 112 103 130 3 113 106 122 154 151 180 150 141 145 152 188 206 196 211 61 204 341 289 318 274 253 231 225 214 195 189
358 353 348 332 11 323 62 338 310 278 69 231 227 342 340 123 68 297 354 112 47 152 136 91 275 148 135 160 132 217 196 117 122 88 247 54 284 308 268 273 239 233 205 188 175
349 350 347 328 224 117 184 297 311 320 13 63 129 293 360 170 137 14 6 47 138 132 112 217 114 136 142 118 140 205 79 125 114 116 56 173 53 266 268 271 273 328 207 174 173
339 346 343 39 15 280 300 309 66 46 250 159 125 130 85 17 6 117 101 55 133 88 32 87 52 27 80 101 96 142 86 50 55 74 3 306 152 286 246 231 324 9 151 160 167
336 334 329 307 210 318 312 73 54 178 324 225 179 161 125 136 63 24 165 146 151 100 192 13 11 2 57 83 37 80 81 324 343 16 225 179 85 248 276 310 285 303 213 169 164
329 327 323 14 321 329 46 64 152 230 207 125 105 95 176 157 151 100 99 177 239 103 116 143 275 171 353 84 170 147 154 163 227 223 277 270 244 251 159 267 336 6 133 141 154
336 340 16 337 335 318 99 194 198 196 157 149 66 110 210 172 139 123 189 216 215 192 146 130 61 329 38 9 14 185 182 151 104 60 54 253 291 305 47 358 30 64 112 161 158
354 348 13 313 328 120 92 218 197 168 132 136 179 160 174 190 140 160 177 212 236 203 319 201 98 3 336 137 23 1 131 80 2 235 277 294 275 247 349 345 355 320 197 177 156
7 90 267 314 188 53 200 207 213 205 163 154 174 141 191 173 161 172 183 250 39 126 350 141 93 302 55 198 177 128 167 59 106 157 186 265 259 214 278 301 308 327 202 184 178
325 81 290 326 138 167 196 174 175 153 267 110 124 119 163 157 144 177 188 223 359 168 165 182 110 142 214 336 8 162 203 174 137 209 214 134 268 228 271 256 268 327 202 204 192
87 301 313 285 192 208 90 45 227 157 167 174 190 164 157 160 112 167 168 358 3 146 158 187 167 77 3 14 2 222 200 175 111 78 198 156 254 238 265 264 285 248 208 210 193
95 48 331 29 98 118 134 191 193 252 117 127 120 88 113 95 38 153 123 359 341 70 43 88 92 164 185 144 119 193 205 198 155 147 198 222 276 312 293 309 309 274 235 215 202
9 93 230 184 116 100 59 120 173 185 147 194 17 223 165 115 67 145 111 129 25 348 52 84 147 202 258 205 169 205 213 186 206 222 208 11 245 252 273 301 293 285 235 214 206
120 116 349 40 326 135 149 308 168 201 139 188 125 222 220 151 197 184 140 174 177 342 104 53 118 90 304 306 227 255 213 195 224 240 263 269 282 283 279 292 292 285 260 229 217
136 0 100 329 10 93 131 163 212 92 29 72 164 105 59 39 23 69 82 72 145 176 138 131 130 116 261 338 28 294 219 212 206 188 207 217 244 1 306 333 325 315 312 262 232